Simultaneous Nadir Overpasses (SNOs) Predictions

Prediction of SNOs between GOES-14 and NPP Satellite Orbit:

Table of predicted SNOs for the next 14.0 days since TLE Epoch: 10/2/2020
Index Date Time (GOES-14) GOES-14 Lat,Lon NPP Lat,Lon Distance(km) Time Diff (sec)
1 10/03/2020 08:05:16 0.29,-104.38 -0.58,-100.43 449.86 80
2 10/04/2020 20:27:12 -0.26,-104.38 -0.57,-105.74 154.96 80
3 10/05/2020 20:11:07 -0.28,-104.39 0.41,-101.20 362.25 80
4 10/07/2020 08:32:55 0.25,-104.39 0.71,-106.49 238.52 80
5 10/08/2020 08:11:29 0.26,-104.38 -0.28,-101.95 276.40 80
6 10/09/2020 20:33:26 -0.23,-104.34 -0.87,-107.26 332.76 80
7 10/10/2020 20:17:20 -0.24,-104.34 0.12,-102.73 184.07 80
8 10/12/2020 08:39:09 0.21,-104.38 1.00,-108.01 413.42 80
9 10/13/2020 08:17:43 0.23,-104.36 0.01,-103.48 101.45 80
10 10/15/2020 20:23:33 -0.21,-104.30 -0.22,-104.24 6.19 80
